GW2215 Weather Reports


Display with metric or nautical units.
time (UTC)temp
F
wind
direction
speed
MPH
gust
MPH
rain 1hr
in
rain 24hr
in
rain mn
in
humidity
%
barometer
mb
20260505051541 61 273 3.0 6.0 0.00 0.00 0.00 66 1004.2
20260505041538 61 261 1.0 8.0 0.00 0.00 0.00 62 1004.3
20260505040033 62 303 2.0 8.0 0.00 0.00 0.00 61 1004.0
20260505034532 62 277 2.0 7.0 0.00 0.00 0.00 58 1004.1
20260505033045 62 261 1.0 2.0 0.00 0.00 0.00 55 1004.4
20260505031530 62 267 1.0 7.0 0.00 0.00 0.00 54 1004.1
20260505030029 63 248 2.0 8.0 0.00 0.00 0.00 52 1004.0
20260505024528 63 275 3.0 8.0 0.00 0.00 0.00 51 1004.5
20260505023026 64 252 3.0 7.0 0.00 0.00 0.00 51 1004.7
20260505021528 64 286 4.0 8.0 0.00 0.00 0.00 50 1004.5
20260505020023 64 285 2.0 5.0 0.00 0.00 0.00 51 1004.6
20260505014522 65 279 2.0 7.0 0.00 0.00 0.00 52 1004.5
20260505013121 65 266 2.0 3.0 0.00 0.00 0.00 51 1004.6
20260505011522 66 275 2.0 8.0 0.00 0.00 0.00 49 1004.4
20260505010011 66 252 3.0 7.0 0.00 0.00 0.00 48 1004.2
20260505004523 67 242 2.0 8.0 0.00 0.00 0.00 46 1004.1
20260505003010 68 243 1.0 6.0 0.00 0.00 0.00 44 1003.7
20260505001510 69 242 3.0 7.0 0.00 0.00 0.00 42 1003.6
20260505000038 69 281 2.0 11.0 0.00 0.00 0.00 41 1003.5
20260504234602 70 267 3.0 9.0 0.00 0.00 0.00 40 1003.4
20260504233036 70 318 5.0 11.0 0.00 0.00 0.00 38 1003.2
20260504231548 71 321 4.0 13.0 0.00 0.00 0.00 38 1003.4
20260504230036 71 299 7.0 13.0 0.00 0.00 0.00 37 1003.4
20260504224533 71 265 4.0 12.0 0.00 0.00 0.00 36 1003.5
20260504223032 72 303 4.0 13.0 0.00 0.00 0.00 36 1003.5
20260504221532 72 331 5.0 15.0 0.00 0.00 0.00 36 1003.4
20260504220035 72 320 7.0 14.0 0.00 0.00 0.00 36 1003.4
20260504214536 72 345 4.0 10.0 0.00 0.00 0.00 35 1003.6
20260504213029 73 27 2.0 10.0 0.00 0.00 0.00 34 1003.7
20260504211523 71 284 5.0 17.0 0.00 0.00 0.00 35 1003.6
20260504210022 71 274 7.0 15.0 0.00 0.00 0.00 35 1003.5
20260504204549 72 338 3.0 19.0 0.00 0.00 0.00 36 1003.7
20260504203019 72 265 6.0 14.0 0.00 0.00 0.00 34 1003.6
20260504201516 71 331 5.0 15.0 0.00 0.00 0.00 35 1003.7
20260504200016 71 283 6.0 19.0 0.00 0.00 0.00 35 1003.8
20260504194518 71 289 7.0 17.0 0.00 0.00 0.00 35 1003.9
20260504193017 70 303 8.0 18.0 0.00 0.00 0.00 35 1004.1
20260504191508 70 282 11.0 16.0 0.00 0.00 0.00 34 1004.4
20260504190008 71 288 7.0 15.0 0.00 0.00 0.00 34 1004.5
20260504184503 70 319 7.0 14.0 0.00 0.00 0.00 33 1004.9
20260504183101 71 271 6.0 12.0 0.00 0.00 0.00 34 1005.1
20260504181557 70 329 9.0 16.0 0.00 0.00 0.00 34 1005.3
20260504180055 70 286 6.0 14.0 0.00 0.00 0.00 33 1005.5
20260504174555 70 331 6.0 15.0 0.00 0.00 0.00 35 1005.6
20260504173050 69 327 4.0 17.0 0.00 0.00 0.00 33 1005.8
20260504171548 69 307 2.0 9.0 0.00 0.00 0.00 35 1005.8
20260504120124 53 301 4.0 11.0 0.00 0.00 0.00 74 1008.3
20260504081529 46 261 0.0 3.0 0.00 0.00 0.00 70 1008.4